Location: Zagreb
(45.8000°N, 16.0000°E)
Time: 00:31:53
(UTC+01:00)

Transit 2A Rocket - Pass Details

Date: 07 October 2020
Orbit: 586 x 916 km, 66.7° (Epoch: 28 October)

Event Time Altitude Azimuth Distance (km) Brightness Sun altitude
Rises 14:02:45 0° 160° (SSE) 3,510 9.0 35.5°
Reaches altitude 10° 14:06:13 10° 140° (SE) 2,595 8.1 35.2°
Maximum altitude 14:09:48 16° 103° (ESE) 2,180 7.4 35.0°
Drops below altitude 10° 14:13:23 10° 67° (ENE) 2,603 7.5 34.7°
Sets 14:16:50 0° 48° (NE) 3,526 7.9 34.4°
